This is the latest recevied weather packets stored in our database for station/object DO6DD-13. If no packets are shown the sender has not sent any weather packets the latest 10 day(s).
| Time | Temp. | Humidity | Pressure | Rain* | Wind** | Luminosity | Snow |
|---|---|---|---|---|---|---|---|
| 1777384219 | 17.22° C | 34% | 1024.5 hPa | - | - | 656 W/m² | - |
| 1777383618 | 17.78° C | 34% | 1024.6 hPa | - | - | 674 W/m² | - |
| 1777383018 | 17.22° C | 34% | 1024.5 hPa | - | - | 690 W/m² | - |
| 1777382417 | 17.78° C | 33% | 1024.5 hPa | - | - | 702 W/m² | - |
| 1777381817 | 17.22° C | 34% | 1024.7 hPa | - | - | 716 W/m² | - |
| 1777381216 | 16.67° C | 33% | 1024.7 hPa | - | - | 730 W/m² | - |
| 1777380616 | 17.22° C | 34% | 1024.8 hPa | - | - | 740 W/m² | - |
| 1777380015 | 16.67° C | 36% | 1024.8 hPa | - | - | 746 W/m² | - |
| 1777379425 | 16.67° C | 37% | 1024.8 hPa | - | - | 754 W/m² | - |
| 1777378824 | 16.67° C | 36% | 1024.8 hPa | - | - | 760 W/m² | - |
| 1777378224 | 16.67° C | 35% | 1024.9 hPa | - | - | 766 W/m² | - |
| 1777377623 | 16.67° C | 37% | 1025 hPa | - | - | 768 W/m² | - |
| 1777377023 | 16.11° C | 38% | 1025.1 hPa | - | - | 770 W/m² | - |
| 1777376422 | 16.11° C | 40% | 1025.1 hPa | - | - | 770 W/m² | - |
| 1777375822 | 15.56° C | 43% | 1025.1 hPa | - | - | 768 W/m² | - |
| 1777375221 | 15.56° C | 44% | 1025.1 hPa | - | - | 768 W/m² | - |
| 1777374621 | 15.56° C | 45% | 1025.1 hPa | - | - | 768 W/m² | - |
| 1777374020 | 15° C | 47% | 1025.1 hPa | - | - | 734 W/m² | - |
| 1777373420 | 15° C | 49% | 1025.1 hPa | - | - | 368 W/m² | - |
| 1777372819 | 14.44° C | 49% | 1025.2 hPa | - | - | 202 W/m² | - |
| 1777372219 | 15° C | 49% | 1025.1 hPa | - | - | 116 W/m² | - |
| 1777371618 | 14.44° C | 50% | 1025.1 hPa | - | - | 170 W/m² | - |
| 1777371018 | 13.89° C | 51% | 1025.1 hPa | - | - | 116 W/m² | - |
| 1777370417 | 13.89° C | 52% | 1025 hPa | - | - | 90 W/m² | - |
| 1777369817 | 13.33° C | 52% | 1025.1 hPa | - | - | 112 W/m² | - |
* Rain since midnight (hover to see other rain measurements)
** Current wind speed in m/s (hover to see current wind gust speed)